Year,Month,Day,Hour,Minute,Value (Times are PST for temperature in C)
2006,05,04,00,00,6.70
2006,05,04,00,01,6.70
2006,05,04,00,02,6.70
2006,05,04,00,03,6.60
2006,05,04,00,04,6.60
2006,05,04,00,05,6.60
2006,05,04,00,06,6.60
2006,05,04,00,07,6.60
2006,05,04,00,08,6.60
2006,05,04,00,09,6.50
2006,05,04,00,10,6.40
2006,05,04,00,11,6.40
2006,05,04,00,12,6.40
2006,05,04,00,13,6.30
2006,05,04,00,14,6.30
2006,05,04,00,15,6.30
2006,05,04,00,16,6.20
2006,05,04,00,17,6.20
2006,05,04,00,18,6.20
2006,05,04,00,19,6.20
2006,05,04,00,20,6.20
2006,05,04,00,21,6.20
2006,05,04,00,22,6.10
2006,05,04,00,23,6.10
2006,05,04,00,24,6.10
2006,05,04,00,25,6.10
2006,05,04,00,26,6.10
2006,05,04,00,27,6.10
2006,05,04,00,28,6.10
2006,05,04,00,29,6.10
2006,05,04,00,30,6.10
2006,05,04,00,31,6.10
2006,05,04,00,32,6.10
2006,05,04,00,33,6.10
2006,05,04,00,34,6.10
2006,05,04,00,35,6.10
2006,05,04,00,36,6.00
2006,05,04,00,37,6.00
2006,05,04,00,38,6.00
2006,05,04,00,39,6.00
2006,05,04,00,40,5.90
2006,05,04,00,41,5.90
2006,05,04,00,42,5.90
2006,05,04,00,43,5.80
2006,05,04,00,44,5.80
2006,05,04,00,45,5.80
2006,05,04,00,46,5.80
2006,05,04,00,47,5.70
2006,05,04,00,48,5.70
2006,05,04,00,49,5.70
2006,05,04,00,50,5.70
2006,05,04,00,51,5.70
2006,05,04,00,52,5.70
2006,05,04,00,53,5.70
2006,05,04,00,54,5.70
2006,05,04,00,55,5.70
2006,05,04,00,56,5.70
2006,05,04,00,57,5.70
2006,05,04,00,58,5.70
2006,05,04,00,59,5.70
2006,05,04,01,00,5.70
2006,05,04,01,01,5.70
2006,05,04,01,02,5.70
2006,05,04,01,03,5.70
2006,05,04,01,04,5.70
2006,05,04,01,05,5.70
2006,05,04,01,06,5.70
2006,05,04,01,07,5.70
2006,05,04,01,08,5.70
2006,05,04,01,09,5.70
2006,05,04,01,10,5.60
2006,05,04,01,11,5.60
2006,05,04,01,12,5.50
2006,05,04,01,13,5.50
2006,05,04,01,14,5.40
2006,05,04,01,15,5.40
2006,05,04,01,16,5.30
2006,05,04,01,17,5.30
2006,05,04,01,18,5.20
2006,05,04,01,19,5.20
2006,05,04,01,20,5.10
2006,05,04,01,21,5.10
2006,05,04,01,22,5.10
2006,05,04,01,23,5.10
2006,05,04,01,24,5.10
2006,05,04,01,25,5.10
2006,05,04,01,26,5.10
2006,05,04,01,27,5.10
2006,05,04,01,28,5.10
2006,05,04,01,29,5.10
2006,05,04,01,30,5.10
2006,05,04,01,31,5.10
2006,05,04,01,32,5.10
2006,05,04,01,33,5.10
2006,05,04,01,34,5.10
2006,05,04,01,35,5.10
2006,05,04,01,36,5.10
2006,05,04,01,37,5.10
2006,05,04,01,38,5.10
2006,05,04,01,39,5.10
2006,05,04,01,40,5.10
2006,05,04,01,41,5.10
2006,05,04,01,42,5.10
2006,05,04,01,43,5.10
2006,05,04,01,44,5.10
2006,05,04,01,45,5.10
2006,05,04,01,46,5.00
2006,05,04,01,47,4.90
2006,05,04,01,48,4.90
2006,05,04,01,49,4.90
2006,05,04,01,50,4.90
2006,05,04,01,51,4.90
2006,05,04,01,52,4.90
2006,05,04,01,53,4.90
2006,05,04,01,54,4.90
2006,05,04,01,55,4.90
2006,05,04,01,56,4.90
2006,05,04,01,57,4.90
2006,05,04,01,58,4.80
2006,05,04,01,59,4.80
2006,05,04,02,00,4.80
2006,05,04,02,01,4.80
2006,05,04,02,02,4.70
2006,05,04,02,03,4.70
2006,05,04,02,04,4.70
2006,05,04,02,05,4.70
2006,05,04,02,06,4.70
2006,05,04,02,07,4.70
2006,05,04,02,08,4.70
2006,05,04,02,09,4.60
2006,05,04,02,10,4.60
2006,05,04,02,11,4.60
2006,05,04,02,12,4.60
2006,05,04,02,13,4.60
2006,05,04,02,14,4.60
2006,05,04,02,15,4.60
2006,05,04,02,16,4.60
2006,05,04,02,17,4.60
2006,05,04,02,18,4.60
2006,05,04,02,19,4.60
2006,05,04,02,20,4.60
2006,05,04,02,21,4.60
2006,05,04,02,22,4.60
2006,05,04,02,23,4.60
2006,05,04,02,24,4.60
2006,05,04,02,25,4.60
2006,05,04,02,26,4.60
2006,05,04,02,27,4.60
2006,05,04,02,28,4.60
2006,05,04,02,29,4.60
2006,05,04,02,30,4.60
2006,05,04,02,31,4.60
2006,05,04,02,32,4.60
2006,05,04,02,33,4.60
2006,05,04,02,34,4.60
2006,05,04,02,35,4.60
2006,05,04,02,36,4.60
2006,05,04,02,37,4.50
2006,05,04,02,38,4.50
2006,05,04,02,39,4.50
2006,05,04,02,40,4.40
2006,05,04,02,41,4.40
2006,05,04,02,42,4.40
2006,05,04,02,43,4.30
2006,05,04,02,44,4.30
2006,05,04,02,45,4.30
2006,05,04,02,46,4.20
2006,05,04,02,47,4.20
2006,05,04,02,48,4.20
2006,05,04,02,49,4.20
2006,05,04,02,50,4.20
2006,05,04,02,51,4.20
2006,05,04,02,52,4.20
2006,05,04,02,53,4.20
2006,05,04,02,54,4.20
2006,05,04,02,55,4.20
2006,05,04,02,56,4.20
2006,05,04,02,57,4.20
2006,05,04,02,58,4.20
2006,05,04,02,59,4.20
2006,05,04,03,00,4.20
2006,05,04,03,01,4.10
2006,05,04,03,02,4.10
2006,05,04,03,03,4.10
2006,05,04,03,04,4.10
2006,05,04,03,05,4.10
2006,05,04,03,06,4.10
2006,05,04,03,07,4.10
2006,05,04,03,08,4.10
2006,05,04,03,09,4.10
2006,05,04,03,10,4.10
2006,05,04,03,11,4.10
2006,05,04,03,12,4.10
2006,05,04,03,13,4.10
2006,05,04,03,14,4.10
2006,05,04,03,15,4.10
2006,05,04,03,16,4.10
2006,05,04,03,17,4.10
2006,05,04,03,18,4.10
2006,05,04,03,19,4.10
2006,05,04,03,20,4.00
2006,05,04,03,21,4.00
2006,05,04,03,22,4.00
2006,05,04,03,23,4.00
2006,05,04,03,24,4.00
2006,05,04,03,25,3.90
2006,05,04,03,26,3.90
2006,05,04,03,27,3.90
2006,05,04,03,28,3.80
2006,05,04,03,29,3.80
2006,05,04,03,30,3.80
2006,05,04,03,31,3.80
2006,05,04,03,32,3.80
2006,05,04,03,33,3.80
2006,05,04,03,34,3.80
2006,05,04,03,35,3.80
2006,05,04,03,36,3.80
2006,05,04,03,37,3.80
2006,05,04,03,38,3.80
2006,05,04,03,39,3.80
2006,05,04,03,40,3.80
2006,05,04,03,41,3.80
2006,05,04,03,42,3.80
2006,05,04,03,43,3.80
2006,05,04,03,44,3.80
2006,05,04,03,45,3.80
2006,05,04,03,46,3.80
2006,05,04,03,47,3.70
2006,05,04,03,48,3.70
2006,05,04,03,49,3.70
2006,05,04,03,50,3.70
2006,05,04,03,51,3.70
2006,05,04,03,52,3.70
2006,05,04,03,53,3.70
2006,05,04,03,54,3.70
2006,05,04,03,55,3.70
2006,05,04,03,56,3.70
2006,05,04,03,57,3.70
2006,05,04,03,58,3.70
2006,05,04,03,59,3.70
2006,05,04,04,00,3.70
2006,05,04,04,01,3.70
2006,05,04,04,02,3.70
2006,05,04,04,03,3.70
2006,05,04,04,04,3.70
2006,05,04,04,05,3.70
2006,05,04,04,06,3.60
2006,05,04,04,07,3.60
2006,05,04,04,08,3.60
2006,05,04,04,09,3.60
2006,05,04,04,10,3.60
2006,05,04,04,11,3.60
2006,05,04,04,12,3.60
2006,05,04,04,13,3.60
2006,05,04,04,14,3.50
2006,05,04,04,15,3.50
2006,05,04,04,16,3.50
2006,05,04,04,17,3.50
2006,05,04,04,18,3.50
2006,05,04,04,19,3.60
2006,05,04,04,20,3.60
2006,05,04,04,21,3.60
2006,05,04,04,22,3.60
2006,05,04,04,23,3.60
2006,05,04,04,24,3.70
2006,05,04,04,25,3.70
2006,05,04,04,26,3.70
2006,05,04,04,27,3.70
2006,05,04,04,28,3.70
2006,05,04,04,29,3.70
2006,05,04,04,30,3.60
2006,05,04,04,31,3.60
2006,05,04,04,32,3.50
2006,05,04,04,33,3.50
2006,05,04,04,34,3.50
2006,05,04,04,35,3.40
2006,05,04,04,36,3.40
2006,05,04,04,37,3.40
2006,05,04,04,38,3.30
2006,05,04,04,39,3.30
2006,05,04,04,40,3.30
2006,05,04,04,41,3.30
2006,05,04,04,42,3.30
2006,05,04,04,43,3.30
2006,05,04,04,44,3.30
2006,05,04,04,45,3.30
2006,05,04,04,46,3.20
2006,05,04,04,47,3.20
2006,05,04,04,48,3.20
2006,05,04,04,49,3.20
2006,05,04,04,50,3.20
2006,05,04,04,51,3.10
2006,05,04,04,52,3.10
2006,05,04,04,53,3.10
2006,05,04,04,54,3.10
2006,05,04,04,55,3.10
2006,05,04,04,56,3.10
2006,05,04,04,57,3.10
2006,05,04,04,58,3.10
2006,05,04,04,59,3.10
2006,05,04,05,00,3.10
2006,05,04,05,01,3.10
2006,05,04,05,02,3.20
2006,05,04,05,03,3.30
2006,05,04,05,04,3.30
2006,05,04,05,05,3.30
2006,05,04,05,06,3.30
2006,05,04,05,07,3.40
2006,05,04,05,08,3.40
2006,05,04,05,09,3.40
2006,05,04,05,10,3.30
2006,05,04,05,11,3.30
2006,05,04,05,12,3.30
2006,05,04,05,13,3.30
2006,05,04,05,14,3.30
2006,05,04,05,15,3.20
2006,05,04,05,16,3.20
2006,05,04,05,17,3.10
2006,05,04,05,18,3.10
2006,05,04,05,19,3.10
2006,05,04,05,20,3.10
2006,05,04,05,21,3.00
2006,05,04,05,22,2.90
2006,05,04,05,23,2.90
2006,05,04,05,24,2.80
2006,05,04,05,25,2.80
2006,05,04,05,26,2.80
2006,05,04,05,27,2.80
2006,05,04,05,28,2.80
2006,05,04,05,29,2.80
2006,05,04,05,30,2.80
2006,05,04,05,31,2.90
2006,05,04,05,32,3.00
2006,05,04,05,33,3.10
2006,05,04,05,34,3.10
2006,05,04,05,35,3.20
2006,05,04,05,36,3.20
2006,05,04,05,37,3.20
2006,05,04,05,38,3.10
2006,05,04,05,39,3.10
2006,05,04,05,40,3.10
2006,05,04,05,41,3.00
2006,05,04,05,42,2.90
2006,05,04,05,43,2.90
2006,05,04,05,44,2.90
2006,05,04,05,45,2.90
2006,05,04,05,46,2.90
2006,05,04,05,47,2.90
2006,05,04,05,48,2.90
2006,05,04,05,49,2.80
2006,05,04,05,50,2.80
2006,05,04,05,51,2.90
2006,05,04,05,52,2.90
2006,05,04,05,53,2.90
2006,05,04,05,54,3.00
2006,05,04,05,55,3.10
2006,05,04,05,56,3.10
2006,05,04,05,57,3.10
2006,05,04,05,58,3.20
2006,05,04,05,59,3.20
2006,05,04,06,00,3.20
2006,05,04,06,01,3.10
2006,05,04,06,02,3.10
2006,05,04,06,03,3.10
2006,05,04,06,04,3.10
2006,05,04,06,05,2.90
2006,05,04,06,06,2.90
2006,05,04,06,07,2.90
2006,05,04,06,08,2.90
2006,05,04,06,09,2.80
2006,05,04,06,10,2.80
2006,05,04,06,11,2.80
2006,05,04,06,12,2.80
2006,05,04,06,13,2.80
2006,05,04,06,14,2.80
2006,05,04,06,15,2.80
2006,05,04,06,16,2.90
2006,05,04,06,17,2.90
2006,05,04,06,18,2.90
2006,05,04,06,19,2.90
2006,05,04,06,20,2.90
2006,05,04,06,21,2.90
2006,05,04,06,22,2.90
2006,05,04,06,23,2.90
2006,05,04,06,24,2.90
2006,05,04,06,25,2.90
2006,05,04,06,26,2.90
2006,05,04,06,27,2.90
2006,05,04,06,28,2.90
2006,05,04,06,29,3.00
2006,05,04,06,30,3.10
2006,05,04,06,31,3.10
2006,05,04,06,32,3.10
2006,05,04,06,33,3.10
2006,05,04,06,34,3.20
2006,05,04,06,35,3.20
2006,05,04,06,36,3.30
2006,05,04,06,37,3.30
2006,05,04,06,38,3.30
2006,05,04,06,39,3.40
2006,05,04,06,40,3.50
2006,05,04,06,41,3.60
2006,05,04,06,42,3.70
2006,05,04,06,43,3.80
2006,05,04,06,44,3.80
2006,05,04,06,45,3.80
2006,05,04,06,46,4.00
2006,05,04,06,47,4.10
2006,05,04,06,48,4.10
2006,05,04,06,49,4.20
2006,05,04,06,50,4.20
2006,05,04,06,51,4.30
2006,05,04,06,52,4.40
2006,05,04,06,53,4.50
2006,05,04,06,54,4.60
2006,05,04,06,55,4.60
2006,05,04,06,56,4.70
2006,05,04,06,57,4.80
2006,05,04,06,58,4.90
2006,05,04,06,59,5.00
2006,05,04,07,00,5.10
2006,05,04,07,01,5.20
2006,05,04,07,02,5.40
2006,05,04,07,03,5.60
2006,05,04,07,04,5.70
2006,05,04,07,05,5.90
2006,05,04,07,06,6.00
2006,05,04,07,07,6.10
2006,05,04,07,08,6.10
2006,05,04,07,09,6.10
2006,05,04,07,10,6.00
2006,05,04,07,11,6.00
2006,05,04,07,12,6.00
2006,05,04,07,13,6.00
2006,05,04,07,14,6.10
2006,05,04,07,15,6.10
2006,05,04,07,16,6.20
2006,05,04,07,17,6.30
2006,05,04,07,18,6.40
2006,05,04,07,19,6.60
2006,05,04,07,20,6.60
2006,05,04,07,21,6.80
2006,05,04,07,22,6.90
2006,05,04,07,23,7.10
2006,05,04,07,24,7.30
2006,05,04,07,25,7.40
2006,05,04,07,26,7.50
2006,05,04,07,27,7.50
2006,05,04,07,28,7.50
2006,05,04,07,29,7.60
2006,05,04,07,30,7.60
2006,05,04,07,31,7.60
2006,05,04,07,32,7.60
2006,05,04,07,33,7.60
2006,05,04,07,34,7.60
2006,05,04,07,35,7.70
2006,05,04,07,36,7.90
2006,05,04,07,37,8.10
2006,05,04,07,38,8.20
2006,05,04,07,39,8.40
2006,05,04,07,40,8.60
2006,05,04,07,41,8.70
2006,05,04,07,42,8.90
2006,05,04,07,43,9.00
2006,05,04,07,44,9.10
2006,05,04,07,45,9.30
2006,05,04,07,46,9.40
2006,05,04,07,47,9.60
2006,05,04,07,48,9.70
2006,05,04,07,49,9.80
2006,05,04,07,50,10.10
2006,05,04,07,51,10.40
2006,05,04,07,52,10.70
2006,05,04,07,53,11.00
2006,05,04,07,54,11.30
2006,05,04,07,55,11.40
2006,05,04,07,56,11.90
2006,05,04,07,57,12.20
2006,05,04,07,58,12.40
2006,05,04,07,59,12.60
2006,05,04,08,00,12.80
2006,05,04,08,01,12.90
2006,05,04,08,02,13.00
2006,05,04,08,03,13.00
2006,05,04,08,04,13.20
2006,05,04,08,05,13.30
2006,05,04,08,06,13.40
2006,05,04,08,07,13.50
2006,05,04,08,08,13.60
2006,05,04,08,09,13.60
2006,05,04,08,10,13.70
2006,05,04,08,11,13.70
2006,05,04,08,12,13.70
2006,05,04,08,13,13.70
2006,05,04,08,14,13.70
2006,05,04,08,15,13.70
2006,05,04,08,16,13.70
2006,05,04,08,17,13.70
2006,05,04,08,18,13.70
2006,05,04,08,19,13.70
2006,05,04,08,20,13.70
2006,05,04,08,21,13.70
2006,05,04,08,22,13.70
2006,05,04,08,23,13.70
2006,05,04,08,24,13.70
2006,05,04,08,25,13.70
2006,05,04,08,26,13.70
2006,05,04,08,27,13.70
2006,05,04,08,28,13.70
2006,05,04,08,29,13.70
2006,05,04,08,30,13.80
2006,05,04,08,31,13.80
2006,05,04,08,32,13.90
2006,05,04,08,33,13.90
2006,05,04,08,34,14.00
2006,05,04,08,35,14.00
2006,05,04,08,36,14.00
2006,05,04,08,37,14.00
2006,05,04,08,38,14.10
2006,05,04,08,39,14.10
2006,05,04,08,40,14.10
2006,05,04,08,41,14.10
2006,05,04,08,42,14.20
2006,05,04,08,43,14.20
2006,05,04,08,44,14.20
2006,05,04,08,45,14.20
2006,05,04,08,46,14.30
2006,05,04,08,47,14.30
2006,05,04,08,48,14.30
2006,05,04,08,49,14.30
2006,05,04,08,50,14.40
2006,05,04,08,51,14.40
2006,05,04,08,52,14.40
2006,05,04,08,53,14.50
2006,05,04,08,54,14.60
2006,05,04,08,55,14.60
2006,05,04,08,56,14.60
2006,05,04,08,57,14.70
2006,05,04,08,58,14.80
2006,05,04,08,59,14.90
2006,05,04,09,00,15.00
2006,05,04,09,01,15.00
2006,05,04,09,02,15.10
2006,05,04,09,03,15.10
2006,05,04,09,04,15.20
2006,05,04,09,05,15.20
2006,05,04,09,06,15.30
2006,05,04,09,07,15.30
2006,05,04,09,08,15.30
2006,05,04,09,09,15.30
2006,05,04,09,10,15.30
2006,05,04,09,11,15.20
2006,05,04,09,12,15.10
2006,05,04,09,13,15.10
2006,05,04,09,14,15.10
2006,05,04,09,15,15.20
2006,05,04,09,16,15.20
2006,05,04,09,17,15.30
2006,05,04,09,18,15.30
2006,05,04,09,19,15.30
2006,05,04,09,20,15.30
2006,05,04,09,21,15.40
2006,05,04,09,22,15.50
2006,05,04,09,23,15.50
2006,05,04,09,24,15.60
2006,05,04,09,25,15.70
2006,05,04,09,26,15.60
2006,05,04,09,27,15.50
2006,05,04,09,28,15.50
2006,05,04,09,29,15.50
2006,05,04,09,30,15.60
2006,05,04,09,31,15.70
2006,05,04,09,32,15.70
2006,05,04,09,33,15.70
2006,05,04,09,34,15.80
2006,05,04,09,35,15.80
2006,05,04,09,36,15.80
2006,05,04,09,37,15.80
2006,05,04,09,38,15.80
2006,05,04,09,39,15.90
2006,05,04,09,40,15.90
2006,05,04,09,41,16.00
2006,05,04,09,42,16.10
2006,05,04,09,43,16.20
2006,05,04,09,44,16.30
2006,05,04,09,45,16.40
2006,05,04,09,46,16.40
2006,05,04,09,47,16.40
2006,05,04,09,48,16.30
2006,05,04,09,49,16.30
2006,05,04,09,50,16.10
2006,05,04,09,51,16.00
2006,05,04,09,52,15.90
2006,05,04,09,53,15.90
2006,05,04,09,54,16.00
2006,05,04,09,55,16.10
2006,05,04,09,56,16.10
2006,05,04,09,57,15.90
2006,05,04,09,58,15.80
2006,05,04,09,59,15.80
2006,05,04,10,00,15.80
2006,05,04,10,01,15.80
2006,05,04,10,02,15.80
2006,05,04,10,03,15.80
2006,05,04,10,04,15.80
2006,05,04,10,05,15.80
2006,05,04,10,06,15.80
2006,05,04,10,07,15.80
2006,05,04,10,08,15.90
2006,05,04,10,09,15.90
2006,05,04,10,10,16.00
2006,05,04,10,11,16.10
2006,05,04,10,12,16.10
2006,05,04,10,13,16.10
2006,05,04,10,14,16.10
2006,05,04,10,15,16.20
2006,05,04,10,16,16.20
2006,05,04,10,17,16.20
2006,05,04,10,18,16.20
2006,05,04,10,19,16.20
2006,05,04,10,20,16.20
2006,05,04,10,21,16.20
2006,05,04,10,22,16.10
2006,05,04,10,23,16.10
2006,05,04,10,24,16.10
2006,05,04,10,25,16.10
2006,05,04,10,26,16.10
2006,05,04,10,27,16.10
2006,05,04,10,28,16.10
2006,05,04,10,29,16.10
2006,05,04,10,30,16.20
2006,05,04,10,31,16.30
2006,05,04,10,32,16.30
2006,05,04,10,33,16.40
2006,05,04,10,34,16.40
2006,05,04,10,35,16.50
2006,05,04,10,36,16.60
2006,05,04,10,37,16.70
2006,05,04,10,38,16.70
2006,05,04,10,39,16.70
2006,05,04,10,40,16.80
2006,05,04,10,41,16.80
2006,05,04,10,42,16.80
2006,05,04,10,43,16.80
2006,05,04,10,44,16.80
2006,05,04,10,45,16.70
2006,05,04,10,46,16.70
2006,05,04,10,47,16.70
2006,05,04,10,48,16.70
2006,05,04,10,49,16.80
2006,05,04,10,50,16.90
2006,05,04,10,51,17.00
2006,05,04,10,52,17.10
2006,05,04,10,53,17.30
2006,05,04,10,54,17.30
2006,05,04,10,55,17.30
2006,05,04,10,56,17.30
2006,05,04,10,57,17.10
2006,05,04,10,58,17.10
2006,05,04,10,59,16.90
2006,05,04,11,00,16.80
2006,05,04,11,01,16.80
2006,05,04,11,02,16.80
2006,05,04,11,03,16.90
2006,05,04,11,04,16.90
2006,05,04,11,05,17.00
2006,05,04,11,06,17.10
2006,05,04,11,07,17.10
2006,05,04,11,08,17.10
2006,05,04,11,09,17.10
2006,05,04,11,10,17.20
2006,05,04,11,11,17.20
2006,05,04,11,12,17.20
2006,05,04,11,13,17.20
2006,05,04,11,14,17.30
2006,05,04,11,15,17.40
2006,05,04,11,16,17.40
2006,05,04,11,17,17.60
2006,05,04,11,18,17.80
2006,05,04,11,19,17.90
2006,05,04,11,20,17.90
2006,05,04,11,21,17.90
2006,05,04,11,22,17.90
2006,05,04,11,23,17.90
2006,05,04,11,24,17.90
2006,05,04,11,25,17.90
2006,05,04,11,26,17.90
2006,05,04,11,27,17.90
2006,05,04,11,28,17.90
2006,05,04,11,29,17.90
2006,05,04,11,30,17.90
2006,05,04,11,31,18.00
2006,05,04,11,32,18.10
2006,05,04,11,33,18.10
2006,05,04,11,34,18.00
2006,05,04,11,35,17.90
2006,05,04,11,36,17.90
2006,05,04,11,37,17.90
2006,05,04,11,38,18.00
2006,05,04,11,39,18.10
2006,05,04,11,40,18.20
2006,05,04,11,41,18.20
2006,05,04,11,42,18.20
2006,05,04,11,43,18.30
2006,05,04,11,44,18.30
2006,05,04,11,45,18.30
2006,05,04,11,46,18.30
2006,05,04,11,47,18.30
2006,05,04,11,48,18.40
2006,05,04,11,49,18.50
2006,05,04,11,50,18.50
2006,05,04,11,51,18.50
2006,05,04,11,52,18.40
2006,05,04,11,53,18.40
2006,05,04,11,54,18.50
2006,05,04,11,55,18.50
2006,05,04,11,56,18.50
2006,05,04,11,57,18.50
2006,05,04,11,58,18.40
2006,05,04,11,59,18.30
2006,05,04,12,00,18.20
2006,05,04,12,01,18.20
2006,05,04,12,02,18.20
2006,05,04,12,03,18.10
2006,05,04,12,04,18.10
2006,05,04,12,05,18.20
2006,05,04,12,06,18.40
2006,05,04,12,07,18.50
2006,05,04,12,08,18.60
2006,05,04,12,09,18.70
2006,05,04,12,10,18.80
2006,05,04,12,11,18.90
2006,05,04,12,12,18.90
2006,05,04,12,13,18.80
2006,05,04,12,14,18.80
2006,05,04,12,15,18.80
2006,05,04,12,16,18.70
2006,05,04,12,17,18.60
2006,05,04,12,18,18.60
2006,05,04,12,19,18.60
2006,05,04,12,20,18.60
2006,05,04,12,21,18.60
2006,05,04,12,22,18.60
2006,05,04,12,23,18.60
2006,05,04,12,24,18.60
2006,05,04,12,25,18.70
2006,05,04,12,26,18.70
2006,05,04,12,27,18.70
2006,05,04,12,28,18.60
2006,05,04,12,29,18.70
2006,05,04,12,30,18.70
2006,05,04,12,31,18.80
2006,05,04,12,32,18.90
2006,05,04,12,33,18.90
2006,05,04,12,34,19.00
2006,05,04,12,35,19.10
2006,05,04,12,36,19.10
2006,05,04,12,37,19.10
2006,05,04,12,38,19.10
2006,05,04,12,39,19.10
2006,05,04,12,40,19.10
2006,05,04,12,41,19.10
2006,05,04,12,42,19.10
2006,05,04,12,43,19.10
2006,05,04,12,44,19.10
2006,05,04,12,45,19.00
2006,05,04,12,46,19.10
2006,05,04,12,47,19.10
2006,05,04,12,48,19.10
2006,05,04,12,49,19.10
2006,05,04,12,50,19.10
2006,05,04,12,51,19.00
2006,05,04,12,52,19.00
2006,05,04,12,53,19.10
2006,05,04,12,54,19.10
2006,05,04,12,55,19.20
2006,05,04,12,56,19.20
2006,05,04,12,57,19.20
2006,05,04,12,58,19.10
2006,05,04,12,59,19.10
2006,05,04,13,00,19.20
2006,05,04,13,01,19.30
2006,05,04,13,02,19.40
2006,05,04,13,03,19.40
2006,05,04,13,04,19.40
2006,05,04,13,05,19.40
2006,05,04,13,06,19.50
2006,05,04,13,07,19.60
2006,05,04,13,08,19.60
2006,05,04,13,09,19.60
2006,05,04,13,10,19.60
2006,05,04,13,11,19.60
2006,05,04,13,12,19.60
2006,05,04,13,13,19.50
2006,05,04,13,14,19.50
2006,05,04,13,15,19.40
2006,05,04,13,16,19.40
2006,05,04,13,17,19.40
2006,05,04,13,18,19.50
2006,05,04,13,19,19.50
2006,05,04,13,20,19.40
2006,05,04,13,21,19.40
2006,05,04,13,22,19.40
2006,05,04,13,23,19.30
2006,05,04,13,24,19.30
2006,05,04,13,25,19.30
2006,05,04,13,26,19.30
2006,05,04,13,27,19.40
2006,05,04,13,28,19.40
2006,05,04,13,29,19.40
2006,05,04,13,30,19.40
2006,05,04,13,31,19.50
2006,05,04,13,32,19.40
2006,05,04,13,33,19.30
2006,05,04,13,34,19.20
2006,05,04,13,35,19.10
2006,05,04,13,36,19.00
2006,05,04,13,37,18.90
2006,05,04,13,38,18.90
2006,05,04,13,39,19.00
2006,05,04,13,40,19.10
2006,05,04,13,41,19.10
2006,05,04,13,42,19.20
2006,05,04,13,43,19.10
2006,05,04,13,44,19.10
2006,05,04,13,45,19.10
2006,05,04,13,46,19.20
2006,05,04,13,47,19.20
2006,05,04,13,48,19.30
2006,05,04,13,49,19.30
2006,05,04,13,50,19.30
2006,05,04,13,51,19.30
2006,05,04,13,52,19.30
2006,05,04,13,53,19.20
2006,05,04,13,54,19.10
2006,05,04,13,55,19.20
2006,05,04,13,56,19.20
2006,05,04,13,57,19.10
2006,05,04,13,58,19.10
2006,05,04,13,59,19.10
2006,05,04,14,00,19.10
2006,05,04,14,01,19.10
2006,05,04,14,02,19.10
2006,05,04,14,03,19.20
2006,05,04,14,04,19.30
2006,05,04,14,05,19.40
2006,05,04,14,06,19.50
2006,05,04,14,07,19.60
2006,05,04,14,08,19.70
2006,05,04,14,09,19.80
2006,05,04,14,10,19.90
2006,05,04,14,11,19.90
2006,05,04,14,12,19.90
2006,05,04,14,13,19.90
2006,05,04,14,14,19.90
2006,05,04,14,15,19.90
2006,05,04,14,16,19.90
2006,05,04,14,17,19.90
2006,05,04,14,18,20.00
2006,05,04,14,19,20.10
2006,05,04,14,20,20.20
2006,05,04,14,21,20.20
2006,05,04,14,22,20.20
2006,05,04,14,23,20.20
2006,05,04,14,24,20.10
2006,05,04,14,25,20.10
2006,05,04,14,26,20.10
2006,05,04,14,27,20.10
2006,05,04,14,28,20.10
2006,05,04,14,29,20.20
2006,05,04,14,30,20.20
2006,05,04,14,31,20.20
2006,05,04,14,32,20.10
2006,05,04,14,33,20.00
2006,05,04,14,34,19.90
2006,05,04,14,35,19.90
2006,05,04,14,36,19.80
2006,05,04,14,37,19.80
2006,05,04,14,38,19.70
2006,05,04,14,39,19.70
2006,05,04,14,40,19.60
2006,05,04,14,41,19.60
2006,05,04,14,42,19.60
2006,05,04,14,43,19.70
2006,05,04,14,44,19.70
2006,05,04,14,45,19.80
2006,05,04,14,46,19.80
2006,05,04,14,47,19.80
2006,05,04,14,48,19.90
2006,05,04,14,49,19.90
2006,05,04,14,50,20.00
2006,05,04,14,51,20.20
2006,05,04,14,52,20.30
2006,05,04,14,53,20.40
2006,05,04,14,54,20.40
2006,05,04,14,55,20.50
2006,05,04,14,56,20.60
2006,05,04,14,57,20.70
2006,05,04,14,58,20.70
2006,05,04,14,59,20.80
2006,05,04,15,00,20.80
2006,05,04,15,01,20.80
2006,05,04,15,02,20.80
2006,05,04,15,03,20.80
2006,05,04,15,04,20.70
2006,05,04,15,05,20.70
2006,05,04,15,06,20.60
2006,05,04,15,07,20.60
2006,05,04,15,08,20.60
2006,05,04,15,09,20.60
2006,05,04,15,10,20.60
2006,05,04,15,11,20.60
2006,05,04,15,12,20.60
2006,05,04,15,13,20.70
2006,05,04,15,14,20.70
2006,05,04,15,15,20.80
2006,05,04,15,16,20.90
2006,05,04,15,17,20.90
2006,05,04,15,18,20.80
2006,05,04,15,19,20.90
2006,05,04,15,20,20.90
2006,05,04,15,21,20.80
2006,05,04,15,22,20.70
2006,05,04,15,23,20.70
2006,05,04,15,24,20.70
2006,05,04,15,25,20.80
2006,05,04,15,26,20.80
2006,05,04,15,27,20.90
2006,05,04,15,28,20.90
2006,05,04,15,29,20.90
2006,05,04,15,30,20.90
2006,05,04,15,31,20.90
2006,05,04,15,32,21.00
2006,05,04,15,33,21.00
2006,05,04,15,34,20.90
2006,05,04,15,35,20.90
2006,05,04,15,36,20.90
2006,05,04,15,37,20.90
2006,05,04,15,38,21.00
2006,05,04,15,39,21.00
2006,05,04,15,40,20.90
2006,05,04,15,41,20.90
2006,05,04,15,42,20.90
2006,05,04,15,43,20.90
2006,05,04,15,44,21.00
2006,05,04,15,45,21.10
2006,05,04,15,46,21.20
2006,05,04,15,47,21.20
2006,05,04,15,48,21.20
2006,05,04,15,49,21.30
2006,05,04,15,50,21.30
2006,05,04,15,51,21.30
2006,05,04,15,52,21.30
2006,05,04,15,53,21.20
2006,05,04,15,54,21.20
2006,05,04,15,55,21.10
2006,05,04,15,56,21.10
2006,05,04,15,57,21.10
2006,05,04,15,58,21.00
2006,05,04,15,59,20.90
2006,05,04,16,00,20.90
2006,05,04,16,01,20.80
2006,05,04,16,02,20.80
2006,05,04,16,03,20.80
2006,05,04,16,04,20.80
2006,05,04,16,05,20.80
2006,05,04,16,06,20.80
2006,05,04,16,07,20.80
2006,05,04,16,08,20.80
2006,05,04,16,09,20.80
2006,05,04,16,10,20.80
2006,05,04,16,11,20.80
2006,05,04,16,12,20.80
2006,05,04,16,13,20.80
2006,05,04,16,14,20.90
2006,05,04,16,15,20.90
2006,05,04,16,16,21.00
2006,05,04,16,17,21.00
2006,05,04,16,18,21.00
2006,05,04,16,19,21.00
2006,05,04,16,20,21.00
2006,05,04,16,21,21.00
2006,05,04,16,22,20.90
2006,05,04,16,23,20.90
2006,05,04,16,24,20.80
2006,05,04,16,25,20.80
2006,05,04,16,26,20.80
2006,05,04,16,27,20.80
2006,05,04,16,28,20.80
2006,05,04,16,29,20.80
2006,05,04,16,30,21.00
2006,05,04,16,31,21.00
2006,05,04,16,32,21.10
2006,05,04,16,33,21.30
2006,05,04,16,34,21.30
2006,05,04,16,35,21.30
2006,05,04,16,36,21.30
2006,05,04,16,37,21.30
2006,05,04,16,38,21.30
2006,05,04,16,39,21.20
2006,05,04,16,40,21.20
2006,05,04,16,41,21.10
2006,05,04,16,42,21.10
2006,05,04,16,43,21.10
2006,05,04,16,44,21.20
2006,05,04,16,45,21.20
2006,05,04,16,46,21.30
2006,05,04,16,47,21.30
2006,05,04,16,48,21.30
2006,05,04,16,49,21.30
2006,05,04,16,50,21.20
2006,05,04,16,51,21.20
2006,05,04,16,52,21.20
2006,05,04,16,53,21.10
2006,05,04,16,54,21.10
2006,05,04,16,55,21.20
2006,05,04,16,56,21.20
2006,05,04,16,57,21.20
2006,05,04,16,58,21.20
2006,05,04,16,59,21.20
2006,05,04,17,00,21.20
2006,05,04,17,01,21.30
2006,05,04,17,02,21.20
2006,05,04,17,03,21.20
2006,05,04,17,04,21.20
2006,05,04,17,05,21.30
2006,05,04,17,06,21.30
2006,05,04,17,07,21.30
2006,05,04,17,08,21.20
2006,05,04,17,09,21.20
2006,05,04,17,10,21.30
2006,05,04,17,11,21.30
2006,05,04,17,12,21.30
2006,05,04,17,13,21.30
2006,05,04,17,14,21.30
2006,05,04,17,15,21.30
2006,05,04,17,16,21.30
2006,05,04,17,17,21.30
2006,05,04,17,18,21.30
2006,05,04,17,19,21.30
2006,05,04,17,20,21.30
2006,05,04,17,21,21.30
2006,05,04,17,22,21.30
2006,05,04,17,23,21.30
2006,05,04,17,24,21.30
2006,05,04,17,25,21.30
2006,05,04,17,26,21.30
2006,05,04,17,27,21.30
2006,05,04,17,28,21.30
2006,05,04,17,29,21.30
2006,05,04,17,30,21.30
2006,05,04,17,31,21.30
2006,05,04,17,32,21.30
2006,05,04,17,33,21.20
2006,05,04,17,34,21.10
2006,05,04,17,35,21.10
2006,05,04,17,36,21.10
2006,05,04,17,37,21.10
2006,05,04,17,38,21.10
2006,05,04,17,39,21.10